Find Tianmu 1-11

NORAD ID: 58645 Int'l Des: 2023-205 Owner: TIANMU Country: CN operational
LEOCIRCULARRETROGRADESSO

リアルタイム位置

3D地球を読み込み中...

Tianmu 1-11について

説明を読み込み中...

次回通過

Passes for default location (London). Set your location on the main map for personalized predictions.

高度履歴

Loading altitude history...

軌道要素

1 58645U 23205A 26105.98271589 .00003013 00000-0 11865-3 0 9994
2 58645 97.3496 128.5326 0007897 213.6124 146.4614 15.26356043128030
Epoch: Apr 15, 2026 • Age: 10 hours

現在のステータス

高度 502.5 km
速度 7.62 km/s
衛星直下点 65.62°N, 128.21°E
打ち上げ日 Dec 25, 2023
運用期間 2.3 years
タイプ other

技術仕様

分類 Payload
質量 50.00 kg
乾燥質量 50.00 kg
総質量 50.00 kg
長さ 1.50 m
直径 1.00 m
スパン 1.50 m
形状 Box
製造者 TIANMU
バスタイプ Tianmu
フェーズステータス In Orbit
所有者/国 TIANMU/CN

Most Searched